Regional Weather Roundup
Issued by NWS

Home | Current Version | Previous Version | Text Only | Print | Product List | Glossary On
Versions: 1 2 3 4 5 6 7 8 9 10 11 12 13 14 15 16 17 18 19 20 21 22 23 24 25 26 27 28 29 30 31 32 33 34 35 36 37 38 39 40 41 42 43 44 45 46 47 48 49 50
000
ASUS43 KTOP 250059
RWRKS

WEATHER ROUNDUP FOR KANSAS
NATIONAL WEATHER SERVICE GOODLAND KS
800 PM CDT THU APR 24 2014

NOTE:  "FAIR" INDICATES FEW OR NO CLOUDS BELOW 12,000 FEET WITH NO
SIGNIFICANT WEATHER AND/OR OBSTRUCTIONS TO VISIBILITY.

KSZ001>006-013>018-027>032-041>047-250200-
NORTHWEST KANSAS

CITY           SKY/WX    TMP DP  RH WIND       PRES   REMARKS
GOODLAND       CLEAR     63  18  17 W5        29.88S
HAYS           CLEAR     64  28  25 W3        29.86R
HILL CITY      CLEAR     66  27  23 W5        29.86R
RUSSELL        CLEAR     64  31  28 NW3       29.84R
$$

KSZ061>065-074>080-084>089-250200-
SOUTHWEST KANSAS

CITY           SKY/WX    TMP DP  RH WIND       PRES   REMARKS
DODGE CITY     PTCLDY    64  30  27 CALM      29.90S
ELKHART          N/A     63  21  20 SE6         N/A
GARDEN CITY    PTCLDY    65  20  17 N5        29.89S
GREAT BEND     CLEAR     64  30  27 NW3       29.86S
LIBERAL        PTCLDY    68  21  17 NW6       29.92F
$$

KSZ066>073-081>083-090>101-250200-
SOUTHEAST KANSAS

CITY           SKY/WX    TMP DP  RH WIND       PRES   REMARKS
CHANUTE        MOCLDY    61  47  59 NW14      29.85R
COFFEYVILLE    PTCLDY    61  44  53 NW17G26   29.86R
HUTCHINSON     CLEAR     64  32  30 NW6       29.86R
MEDICINE LODGE   N/A     67  32  27 N3        29.89R
NEWTON         CLEAR     61  36  39 N3        29.89R
PARSONS        PTCLDY    59  45  59 NW10      29.86R
WICHITA INTL   PTCLDY    64  35  34 NE8       29.86R
WICHITA JABRA  CLEAR     62  38  40 N5        29.86R
WICHITA MCCONL CLEAR     62  36  36 N6        29.87R
WINFIELD       CLEAR     63  37  38 NE5       29.88S
$$

KSZ007>012-019>026-033>040-048>060-102>105-250200-
NORTHEAST KANSAS

CITY           SKY/WX    TMP DP  RH WIND       PRES   REMARKS
CONCORDIA      CLEAR     65  31  28 CALM      29.81S
EMPORIA        CLEAR     59  40  49 N6        29.84R
LAWRENCE       CLOUDY    59  46  62 NW9       29.82R
MANHATTAN      CLEAR     60  44  55 CALM      29.82R
OLATHE IND     CLOUDY    56  47  71 NW12      29.81R
OLATHE EXE     CLOUDY    56  47  71 NW12      29.79R
SALINA         CLEAR     65  42  43 W3        29.84R
TOPEKA BILLARD PTCLDY    61  45  55 N3        29.82R
TOPEKA FORBES  PTCLDY    58  42  55 N5        29.82R
$$



USA.gov is the U.S. government's official web portal to all federal, state and local government web resources and services.